SL-8 R/B

基本信息
目录编号:
15032
目录名称:
SL-8 R/B
国际标识:
1984-056B
轨道中心:
EARTH
物体状态:
在轨
发射日期:
1984-06-08 UTC
国别:
俄罗斯(独联体) (CIS)
轨道信息
数据来源: 国际轨道数据
星历时间: 2026-09-11T01:56:40+0800
半长轴: 7149.309km
偏心率: 0.0016109
轨道倾角: 74.071°
近地点辐角: 55.658°
升交点赤经: 26.484°
平近点角: 304.609°
近地点: 759.655km
远地点: 782.689km
周期: 100.266分钟
每日圈数: 14.361727
详细信息
发射场:
PKMTR
轨道高度:
LEO
数据来源:
AOE Integration Group
参考系:
TEME
时间系统:
UTC
历元类型:
SGP4
2D轨道图
3D轨道图
轨道高度分析图
轨道倾角分析图
轨道综合分析图
查看轨道综合分析图